[[{"header":{"parameterUnit":"m.s-1","parameterCategory":1,"la1":30.2991,"la2":30.254,"lo1":-89.0895,"lo2":-89.0444,"dy":0.0017,"dx":0.0017,"nx":28,"ny":28,"refTime":"2024-02-03T03:00:00:Z","depth":0,"parameterNumber":2,"parameterNumberName":"U-component_of_WINDS"},"data":[0,0,0,0,0,0,0,0,0,0,0,0,0,0,0,0,0,0,0,0,0,0,0,0,0,0,0,0,0,0,0,0,0,0,0,0,0,0,0,0,0,0,0,0,0,0,0,0,0,0,0,0,0,0,0,0,0,0,-8.9813,-8.9815,0,-8.9971,-8.9973,-8.9975,-8.9914,-8.991,-8.9906,-8.9903,-9.0064,-9.0072,-9.0079,0,0,0,0,0,0,0,0,0,0,0,0,0,-8.946,-8.9467,-8.9813,-8.9815,-8.9817,-8.9971,-8.9973,-8.9975,-8.9914,-8.991,-8.9906,-8.9901,-9.0062,-9.0071,-9.008,0,0,0,0,0,0,0,0,0,0,0,0,0,-8.9615,-8.9469,-8.9813,-8.9805,-8.9806,-8.997,-8.9973,-8.9976,-8.9915,-8.991,-8.9904,-8.9899,-9.0059,-9.007,-9.0081,-9.0262,0,0,-9.0117,-9.0122,0,0,0,0,0,0,0,0,-8.9607,-8.9628,-8.9804,-8.9806,-8.9807,-8.9917,-8.9908,-9.0072,-8.9917,-8.9874,-8.9903,-8.9897,-9.002,-9.0034,-9.0076,-9.027,-9.0276,-9.0118,-9.0125,-9.013,-9.0133,0,0,0,0,0,0,0,-8.9596,-8.9621,-8.9875,-8.9807,-8.9809,-8.9795,-8.981,-8.9938,-8.9976,-8.9877,-8.9873,-8.9893,-9.0019,-9.0065,-9.0079,-9.0279,-9.0117,-9.0128,-9.0135,-9.0139,-9.0631,-9.0636,0,0,0,0,0,0,-8.9585,-8.9613,-8.987,-8.988,-8.9692,-8.9805,-8.9823,-8.9887,-8.9974,-8.9982,-8.9897,-8.9889,-9.0048,-9.0066,-9.0084,-9.0301,-9.0129,-9.014,-9.0147,-9.0624,-9.0632,-9.0638,0,0,0,0,0,0,-8.9577,-8.9608,-8.9864,-8.9746,-8.9777,-8.9817,-8.989,-8.9893,-8.9938,-8.9989,-8.9995,-8.9936,-9.0044,-9.0068,-9.0219,-9.0306,-9.0145,-9.0156,-9.0617,-9.0627,-9.0635,-9.0737,0,0,0,0,0,0,-8.9567,-8.9606,-8.9674,-8.9748,-8.9784,-8.9995,-8.9895,-8.99,-8.9959,-8.995,-9.0028,-9.0035,-9.0042,-9.0202,-9.023,-9.0319,-9.0165,-9.0609,-9.0621,-9.0632,-9.0726,-9.0748,-9.0768,0,0,0,0,0,-8.9555,-8.9696,-8.9678,-8.9709,-8.987,-9.0,-9.0021,-9.0025,-8.9966,-9.0035,-9.0068,-9.0033,-9.0293,-9.0218,-9.0249,-9.0343,-9.0604,-9.0618,-9.0631,-9.0716,-9.0744,-9.0767,0,0,0,0,0,0,-8.9631,-8.9705,-8.9686,-8.9855,-8.9922,-8.999,-9.0077,-9.0054,-9.0139,-9.0127,-9.013,-9.0148,-9.0303,-9.0339,-9.0253,-9.0523,-9.0439,-9.046,-9.0493,-9.052,-9.0541,-9.0527,-9.0175,0,0,0,0,0,-8.9668,-8.9767,-8.9827,-8.9971,-9.0006,-9.0036,-9.0093,-9.0091,-9.016,-9.0188,-9.0232,-9.03,-9.0398,-9.0461,-9.0554,-9.0732,-9.0748,-9.0813,-9.0834,-9.0851,-9.0867,-9.0965,-9.0994,-9.0684,-9.0684,-9.0683,0,0,-8.9744,-8.9797,-8.9859,-8.9988,-9.0039,-9.0142,-9.006,-9.0172,-9.0249,-9.0205,-9.0349,-9.0385,-9.0462,-9.0627,-9.0702,-9.0661,-9.0958,-9.0868,-9.0881,-9.0889,-9.0982,-9.1012,-9.1038,-9.0693,-9.0691,-9.069,0,0,-8.9935,-8.9986,-9.011,-9.0165,-9.0244,-9.0264,-9.0295,-9.0367,-9.0389,-9.0535,-9.0504,-9.0596,-9.0764,-9.082,-9.087,-9.1088,-9.1058,-9.1118,-9.1226,-9.1321,-9.1346,-9.1367,-9.1443,-9.1471,-9.1135,-9.1136,-9.1136,0,-9.0019,-9.0173,-9.0178,-9.0293,-9.0351,-9.0318,-9.0445,-9.0497,-9.0603,-9.0644,-9.0597,-9.0808,-9.0858,-9.1036,-9.1089,-9.1132,-9.1166,-9.1107,-9.1342,-9.1364,-9.1384,-9.1457,-9.1485,-9.1142,-9.1141,-9.1141,-9.114,0,-9.0272,-9.038,-9.0472,-9.0575,-9.0644,-9.0765,-9.0788,-9.0857,-9.0851,-9.0877,-9.1026,-9.1085,-9.1189,-9.1232,-9.1227,-9.1411,-9.1383,-9.134,-9.1255,-9.142,-9.1488,-9.1516,-9.1152,-9.1149,-9.1147,-9.1146,0,0,-9.051,-9.0618,-9.0651,-9.0699,-9.0786,-9.087,-9.0991,-9.1093,-9.1152,-9.1228,-9.1328,-9.1473,-9.1434,-9.1492,-9.1493,-9.1577,-9.1745,-9.1524,-9.1525,-9.1561,-9.1951,-9.198,-9.2013,-9.1728,-9.1733,-9.1737,-9.1944,0,-9.0707,-9.0917,-9.0927,-9.1119,-9.1218,-9.1191,-9.1296,-9.1362,-9.139,-9.1479,-9.1511,-9.1613,-9.1554,-9.1589,-9.1671,-9.1707,-9.1822,-9.1693,-9.182,-9.1825,-9.1799,-9.2049,-9.208,-9.2272,-9.197,-9.1975,-9.1978,0,-9.0962,-9.1046,-9.1248,-9.1323,-9.1366,-9.146,-9.1555,-9.1642,-9.1717,-9.1731,-9.1798,-9.1788,-9.1912,-9.1827,-9.1998,-9.191,-9.1964,-9.199,-9.1997,-9.2007,-9.1909,-9.2063,-9.2333,-9.2361,-9.2021,-9.2017,-9.2014,0,-9.1114,-9.1278,-9.142,-9.1462,-9.1554,-9.162,-9.1662,-9.1731,-9.1793,-9.1878,-9.1918,-9.2016,-9.2069,-9.2146,-9.2163,-9.21,-9.2335,-9.2251,-9.235,-9.235,-9.2398,-9.2394,-9.2678,-9.2437,-9.2437,-9.2436,-9.2436,0,-9.133,-9.1454,-9.149,-9.1577,-9.1716,-9.1728,-9.1865,-9.1902,-9.1965,-9.2059,-9.2043,-9.2132,-9.2151,-9.2245,-9.226,-9.2399,-9.2424,-9.2439,-9.2441,-9.2439,-9.2437,-9.2472,-9.2458,-9.2444,-9.2442,-9.2441,-9.244,0,-9.1521,-9.155,-9.1703,-9.1778,-9.18,-9.1899,-9.1964,-9.2048,-9.2076,-9.2196,-9.2225,-9.2268,-9.2378,-9.2404,-9.2534,-9.2545,-9.2709,-9.27,-9.2684,-9.2682,-9.278,-9.2769,-9.3094,-9.3137,-9.287,-9.2873,-9.2875,0,-9.1655,-9.175,-9.1836,-9.1899,-9.1943,-9.2044,-9.2107,-9.2124,-9.2191,-9.2285,-9.2358,-9.2466,-9.2552,-9.2729,-9.2772,-9.2873,-9.2864,-9.2971,-9.2878,-9.2874,-9.2863,-9.2856,-9.2866,-9.2987,-9.299,-9.2992,-9.2994,0,-9.189,-9.1901,-9.1992,-9.2091,-9.2167,-9.2245,-9.232,-9.2372,-9.2399,-9.2476,-9.2588,-9.2655,-9.2789,-9.2896,-9.2998,-9.3041,-9.3023,-9.3024,-9.3052,-9.3049,-9.3035,-9.3042,-9.2729,-9.3015,-9.3013,-9.3012,-9.3011,-9.301,-9.2055,-9.2139,-9.2213,-9.2317,-9.2375,-9.2446,-9.2529,-9.2569,-9.2662,-9.2772,-9.2777,-9.2899,-9.2974,-9.3109,-9.3159,-9.3255,-9.3222,-9.3263,-9.3272,-9.3282,-9.3289,-9.3023,-9.3273,-9.3273,-9.3272,-9.3272,-9.3272,0,-9.2288,-9.2335,-9.2431,-9.2536,-9.2619,-9.2596,-9.2678,-9.2748,-9.2856,-9.2928,-9.3014,-9.3144,-9.3249,-9.3302,-9.3406,-9.3473,-9.3468,-9.35,-9.3494,-9.3504,-9.3313,-9.3278,-9.3503,-9.3503,-9.3503,-9.3503,-9.3503,-9.3503,-9.2418,-9.2559,-9.2579,-9.2748,-9.2795,-9.2914,-9.2963,-9.3029,-9.3086,-9.3232,-9.3319,-9.3354,-9.3419,-9.3528,-9.3624,-9.3637,-9.3675,-9.3712,-9.3721,-9.3541,-9.3517,-9.3495,-9.3461,-9.3721,-9.3721,-9.3903,-9.3904,-9.3906]},{"header":{"parameterUnit":"m.s-1","parameterCategory":1,"la1":30.2991,"la2":30.254,"lo1":-89.0895,"lo2":-89.0444,"dy":0.0017,"dx":0.0017,"nx":28,"ny":28,"refTime":"2024-02-03T03:00:00:Z","depth":0,"parameterNumber":3,"parameterNumberName":"V-component_of_WINDS"},"data":[0,0,0,0,0,0,0,0,0,0,0,0,0,0,0,0,0,0,0,0,0,0,0,0,0,0,0,0,0,0,0,0,0,0,0,0,0,0,0,0,0,0,0,0,0,0,0,0,0,0,0,0,0,0,0,0,0,0,4.0658,4.0659,0,4.0701,4.0701,4.0702,4.0683,4.0682,4.0681,4.068,4.0719,4.0721,4.0723,0,0,0,0,0,0,0,0,0,0,0,0,0,4.0559,4.0561,4.0658,4.0659,4.0659,4.0701,4.0701,4.0702,4.0683,4.0682,4.068,4.0679,4.0719,4.0721,4.0723,0,0,0,0,0,0,0,0,0,0,0,0,0,4.0602,4.0562,4.0658,4.0655,4.0655,4.0701,4.0701,4.0702,4.0683,4.0682,4.068,4.0679,4.0718,4.0721,4.0724,4.0774,0,0,4.0733,4.0734,0,0,0,0,0,0,0,0,4.06,4.0606,4.0655,4.0655,4.0655,4.0685,4.0681,4.0726,4.0684,4.0672,4.068,4.0678,4.0709,4.0713,4.0724,4.0776,4.0777,4.0733,4.0735,4.0737,4.0737,0,0,0,0,0,0,0,4.0597,4.0604,4.0675,4.0655,4.0656,4.0651,4.0655,4.0689,4.0699,4.0673,4.0672,4.0677,4.0709,4.0721,4.0725,4.0778,4.0733,4.0736,4.0738,4.0739,4.0878,4.0879,0,0,0,0,0,0,4.0594,4.0601,4.0673,4.0676,4.0623,4.0654,4.0659,4.0677,4.0698,4.07,4.0679,4.0676,4.0717,4.0721,4.0726,4.0789,4.0737,4.0739,4.0741,4.0876,4.0878,4.088,0,0,0,0,0,0,4.0592,4.0601,4.0672,4.0639,4.0647,4.0657,4.0678,4.0679,4.0691,4.0703,4.0704,4.069,4.0715,4.0722,4.0763,4.079,4.0741,4.0744,4.0874,4.0876,4.0879,4.0913,0,0,0,0,0,0,4.0589,4.06,4.0619,4.0639,4.0649,4.0709,4.0679,4.0681,4.0697,4.0694,4.0713,4.0715,4.0715,4.0759,4.0766,4.0793,4.0746,4.0871,4.0875,4.0878,4.091,4.0917,4.0923,0,0,0,0,0,4.0586,4.0625,4.062,4.0629,4.0673,4.071,4.0716,4.0716,4.0699,4.0718,4.0727,4.0714,4.0786,4.0763,4.0772,4.0799,4.087,4.0874,4.0878,4.0907,4.0915,4.0922,0,0,0,0,0,0,4.0604,4.0627,4.0622,4.0669,4.0688,4.0707,4.0731,4.0725,4.0748,4.0744,4.0742,4.0747,4.0791,4.0799,4.0774,4.0851,4.0825,4.0831,4.0844,4.0852,4.0859,4.0856,4.0748,0,0,0,0,0,4.0615,4.0644,4.0662,4.0701,4.0712,4.072,4.0736,4.0735,4.0754,4.0762,4.0773,4.0791,4.0818,4.0836,4.0861,4.0911,4.0916,4.0935,4.0941,4.0947,4.0952,4.0982,4.0991,4.0894,4.0894,4.0894,0,0,4.0635,4.0651,4.0669,4.0706,4.072,4.0751,4.0727,4.0758,4.0781,4.0766,4.0807,4.0817,4.0837,4.0884,4.0905,4.0893,4.098,4.0952,4.0956,4.0958,4.0987,4.0997,4.1005,4.0897,4.0896,4.0896,0,0,4.0687,4.0702,4.0738,4.0755,4.0779,4.0785,4.0794,4.0815,4.0822,4.0864,4.0854,4.0881,4.0926,4.0943,4.0957,4.1021,4.1012,4.103,4.1063,4.1093,4.1101,4.1108,4.1133,4.1141,4.1035,4.1035,4.1035,0,4.0709,4.0755,4.0757,4.0792,4.081,4.0801,4.0839,4.0854,4.0884,4.0896,4.0882,4.0943,4.0955,4.1008,4.1024,4.1035,4.1046,4.1027,4.11,4.1107,4.1113,4.1137,4.1146,4.1037,4.1037,4.1036,4.1036,0,4.0782,4.0814,4.0841,4.0874,4.0894,4.093,4.0939,4.0959,4.0958,4.0966,4.101,4.1026,4.1056,4.1069,4.1066,4.1122,4.1114,4.11,4.1073,4.1124,4.1147,4.1156,4.104,4.1039,4.1039,4.1038,0,0,4.0843,4.0882,4.0891,4.0908,4.0936,4.0961,4.0998,4.103,4.1049,4.1071,4.1102,4.1144,4.1133,4.1149,4.1148,4.1174,4.1228,4.1158,4.1158,4.1171,4.1293,4.1304,4.1315,4.1222,4.1224,4.1225,4.1292,0,4.0899,4.0966,4.0971,4.103,4.1062,4.1056,4.1089,4.111,4.1119,4.1147,4.1157,4.1188,4.1169,4.118,4.1205,4.1216,4.1252,4.1211,4.1252,4.1253,4.1247,4.1326,4.1337,4.1399,4.1301,4.1302,4.1303,0,4.0972,4.1001,4.1065,4.1093,4.1106,4.1135,4.1167,4.1194,4.1219,4.1224,4.1245,4.1242,4.1281,4.1254,4.1308,4.128,4.1297,4.1305,4.1308,4.1312,4.1281,4.1333,4.1419,4.1429,4.1317,4.1316,4.1315,0,4.1014,4.1068,4.1114,4.1128,4.1162,4.1183,4.1197,4.1221,4.1241,4.1269,4.1282,4.1313,4.133,4.1354,4.1361,4.134,4.1416,4.1388,4.1421,4.1421,4.1437,4.1436,4.1528,4.1447,4.1447,4.1447,4.1446,0,4.1076,4.1116,4.1134,4.1162,4.1207,4.1214,4.1258,4.1271,4.1294,4.1325,4.1321,4.135,4.1356,4.1387,4.1391,4.1437,4.1444,4.145,4.1451,4.1451,4.145,4.1462,4.1458,4.1449,4.1449,4.1448,4.1448,0,4.113,4.1143,4.1194,4.1223,4.1232,4.1264,4.1289,4.1316,4.1327,4.1367,4.1376,4.1393,4.1429,4.1438,4.148,4.1484,4.1538,4.1534,4.153,4.153,4.1564,4.1561,4.1666,4.1682,4.159,4.1591,4.1592,0,4.1169,4.12,4.1234,4.1256,4.1273,4.1307,4.133,4.1338,4.1361,4.1395,4.1419,4.1455,4.1485,4.1543,4.1558,4.1592,4.1589,4.1624,4.1594,4.1594,4.1592,4.159,4.1594,4.163,4.1631,4.1631,4.1632,0,4.1237,4.1244,4.1277,4.1314,4.1341,4.137,4.1397,4.1415,4.1428,4.1454,4.1493,4.1516,4.1562,4.1599,4.1633,4.1647,4.1643,4.1642,4.1652,4.1652,4.1649,4.1653,4.1547,4.1639,4.1638,4.1638,4.1637,4.1637,4.1285,4.1314,4.1345,4.1383,4.1405,4.1432,4.1461,4.1478,4.1511,4.155,4.1553,4.1596,4.1623,4.1669,4.1686,4.172,4.1709,4.1722,4.1726,4.173,4.1734,4.1644,4.1726,4.1725,4.1725,4.1725,4.1725,0,4.1355,4.1376,4.1411,4.1452,4.1483,4.1478,4.151,4.1535,4.1573,4.16,4.1631,4.1677,4.1714,4.1734,4.1771,4.1794,4.1793,4.1803,4.1802,4.1806,4.174,4.1729,4.1804,4.1804,4.1804,4.1804,4.1804,4.1804,4.1396,4.1446,4.1457,4.1519,4.1538,4.1582,4.1601,4.1626,4.1648,4.1701,4.1733,4.1747,4.1771,4.1811,4.1845,4.185,4.1864,4.1876,4.188,4.1818,4.181,4.1802,4.1792,4.1879,4.1879,4.1943,4.1943,4.1944]}]]